Regional Weather Roundup
Issued by NWS

Home | Current Version | Previous Version | Graphics & Text | Print | Product List | Glossary On
Versions: 1 2 3 4 5 6 7 8 9 10 11 12 13 14 15 16 17 18 19 20 21 22 23 24 25 26 27 28 29 30 31 32 33 34 35 36 37 38 39 40 41 42 43 44 45 46 47 48 49 50
989
ASUS43 KDTX 280901
RWRMI
MICHIGAN HOURLY REGIONAL WEATHER ROUNDUP
NATIONAL WEATHER SERVICE DETROIT/PONTIAC MI
500 AM EDT SUN AUG 28 2016

NOTE: "FAIR" INDICATES FEW OR NO CLOUDS BELOW 12,000 FEET WITH NO
SIGNIFICANT WEATHER AND/OR OBSTRUCTION TO VISIBILITY.

MIZ047>049-052>055-059>063-066>070-074>076-081>083-281000-
SOUTHEAST LOWER MICHIGAN

CITY           SKY/WX    TMP DP  RH WIND       PRES   REMARKS
ADRIAN         FOG       69  69 100 SW3       30.16R VSB 1/2
ALMA           FOG       69  69 100 CALM      30.12R VSB 3/4
ANN ARBOR      FOG       71  71 100 S3        30.14S VSB 1
CARO           PTCLDY    70  69  98 SW5       30.10S FOG
DETROIT CITY   CLOUDY    71  71 100 SW5       30.14S FOG
DETROIT        FOG       70  70 100 CALM      30.15R VSB 1/8
FLINT          CLOUDY    73  70  90 SW3       30.13R
GROSSE ILE     CLOUDY    70  69  98 CALM      30.14R FOG
HILLSDALE      PTCLDY    70  69  94 SW3       30.16R FOG
HOWELL         PTCLDY    71  70  98 S3        30.14S FOG

CITY           SKY/WX    TMP DP  RH WIND       PRES   REMARKS
JACKSON        PTCLDY    71  71 100 SW6       30.14S
LAMBERTVILLE     N/A     68  67  94 CALM      30.15S FOG
LANSING        CLOUDY    71  69  93 SW5       30.13S
LAPEER         FOG       66  65  98 CALM      30.13S VSB 1/2
MASON          PTCLDY    70  68  94 SE5       30.14S FOG
MONROE         FOG       68  68 100 CALM      30.14R VSB 1/2
MT. CLEMENS    MOCLDY    71  71 100 SW5       30.12S
PONTIAC        CLOUDY    72  70  93 SW3       30.14R FOG
PORT HURON     CLOUDY    70  70 100 S3        30.14R FOG
TRI CITIES     CLOUDY    71  71 100 SW5       30.11S FOG
MIDLAND        CLOUDY    70  70 100 CALM      30.10R FOG
TROY           CLOUDY    73  70  92 SW5       30.16R FOG
SAGINAW HB     MOCLDY    72  70  94 SW9       30.10R
$$
MIZ043>046-050>051-056>058-064>065-071>073-077>080-281000-
SOUTHWEST LOWER MICHIGAN

CITY           SKY/WX    TMP DP  RH WIND       PRES   REMARKS
BATTLE CREEK   CLOUDY    69  69 100 S6        30.15R
BENTON HARBOR  MOCLDY    72  70  93 CALM      30.13R FOG
BIG RAPIDS     CLOUDY    72  70  95 W3        30.12R
COLDWATER      PTCLDY    72  71  99 SW5       30.15R
FREMONT        FAIR      69  68  98 CALM      30.12R FOG
HOLLAND        CLOUDY    73  71  93 NW5       30.13R
GRAND RAPIDS   CLOUDY    73  70  90 W5        30.13R
IONIA          FAIR      71  70  96 SW7       30.12R
KALAMAZOO      MOCLDY    72  69  90 SW5       30.14R
LUDINGTON      CLOUDY    66  65  96 CALM      30.12R
MARSHALL       PTCLDY    72  72 100 CALM      30.14R
MOUNT PLEASANT MOCLDY    70  69  97 S3        30.11R
MUSKEGON       PTCLDY    72  70  93 NW8       30.12R
SOUTH HAVEN    CLOUDY    73  72  98 CALM      30.13R FOG
$$
MIZ016>042-281000-
NORTHERN LOWER MICHIGAN

CITY           SKY/WX    TMP DP  RH WIND       PRES   REMARKS
ALPENA         PTCLDY    69  66  90 SW5       30.07S
BEAVER ISLAND  CLOUDY    65  64  94 W6        30.09R
BELLAIRE       CLOUDY    69  66  89 CALM      30.09R
CADILLAC       CLOUDY    68  66  93 W6        30.12R
CHARLEVOIX     CLOUDY    68  65  92 W12G22    30.12R
FRANKFORT      CLOUDY    67  64  87 NW6       30.11R
GAYLORD        LGT RAIN  69  65  86 W8        30.10R
GRAYLING       CLOUDY    69  67  94 W6        30.12R
HARBOR SPRINGS CLOUDY    68  65  92 W6        30.08S
HOUGHTON LAKE  CLOUDY    70  68  93 W8        30.12R
MANISTEE       CLOUDY    67  65  93 W3        30.11S
OSCODA         CLOUDY    70  70  99 SW5       30.08R
PELLSTON       CLOUDY    68  65  90 W6        30.08R
ROGERS CITY    PTCLDY    69  66  91 SW6       30.07S
TRAVERSE CITY  CLOUDY    70  66  87 W10       30.08R
$$
MIZ007>008-015-281000-
EASTERN UPPER MICHIGAN

CITY           SKY/WX    TMP DP  RH WIND       PRES   REMARKS
KINROSS        CLOUDY    65  64  97 W13       30.07R FOG
MACKINAC ISLAN CLOUDY    66  66 100 W15G23    30.07R
NEWBERRY       CLOUDY    62  61  97 W7        30.08R
S. S. MARIE    CLOUDY    65  64  97 W12G20    30.05R FOG
$$
MIZ004>006-011>014-085-281000-
CENTRAL UPPER MICHIGAN

CITY           SKY/WX    TMP DP  RH WIND       PRES   REMARKS
MANISTIQUE     MOCLDY    63  60  93 W3        30.08R
ESCANABA       CLOUDY    62  61  96 CALM      30.10R
MENOMINEE      CLOUDY   N/A N/A N/A W3        30.12S
SAWYER-GWINN   CLOUDY    60  58  94 SW5       30.09S
$$
MIZ001>003-009>011-084-281000-
WESTERN UPPER MICHIGAN

CITY           SKY/WX    TMP DP  RH WIND       PRES   REMARKS
IRON MOUNTAIN  CLOUDY    62  59  90 CALM      30.09R
HOUGHTON       PTCLDY    61  58  90 W5        30.07R
IRONWOOD       CLOUDY    61  60  97 W3        30.12S
$$

ABBREVIATIONS USED IN REMARKS
   TC - TEMPERATURE IN CELSIUS
  WCI - WIND CHILL INDEX
   HX - HEAT INDEX
  VSB - VISIBILITY





USA.gov is the U.S. government's official web portal to all federal, state and local government web resources and services.